This is the latest recevied weather packets stored in our database for station/object KI4MRC. If no packets are shown the sender has not sent any weather packets the latest 10 day(s).
| Time | Temp. | Humidity | Pressure | Rain* | Wind** | Luminosity | Snow |
|---|---|---|---|---|---|---|---|
| 1777570092 | 31.67° C | 53% | 1011.4 hPa | 0 mm | - | 1193 W/m² | - |
| 1777569789 | 31.67° C | 52% | 1011.5 hPa | 0 mm | - | 1100 W/m² | - |
| 1777569484 | 31.67° C | 52% | 1011.6 hPa | 0 mm | - | 1023 W/m² | - |
| 1777569181 | 32.22° C | 50% | 1011.7 hPa | 0 mm | - | 1054 W/m² | - |
| 1777568877 | 31.67° C | 50% | 1011.8 hPa | 0 mm | - | 1046 W/m² | - |
| 1777568574 | 31.67° C | 51% | 1011.8 hPa | 0 mm | - | 1029 W/m² | - |
| 1777568272 | 31.67° C | 53% | 1012 hPa | 0 mm | - | 1004 W/m² | - |
| 1777567968 | 31.67° C | 52% | 1012 hPa | 0 mm | - | 999 W/m² | - |
| 1777567664 | 31.67° C | 52% | 1011.9 hPa | 0 mm | - | 994 W/m² | - |
| 1777567362 | 31.67° C | 53% | 1012 hPa | 0 mm | - | 996 W/m² | - |
| 1777567060 | 31.11° C | 53% | 1012.1 hPa | 0 mm | - | 985 W/m² | - |
| 1777566758 | 31.11° C | 54% | 1012.3 hPa | 0 mm | - | 979 W/m² | - |
| 1777566455 | 31.11° C | 54% | 1012.2 hPa | 0 mm | - | 976 W/m² | - |
| 1777566152 | 31.11° C | 53% | 1012.1 hPa | 0 mm | - | 969 W/m² | - |
| 1777565847 | 31.11° C | 55% | 1012.3 hPa | 0 mm | - | 962 W/m² | - |
| 1777565544 | 31.11° C | 53% | 1012.4 hPa | 0 mm | - | 951 W/m² | - |
| 1777565241 | 31.11° C | 54% | 1012.5 hPa | 0 mm | - | 964 W/m² | - |
| 1777564937 | 30.56° C | 56% | 1012.7 hPa | 0 mm | - | 985 W/m² | - |
| 1777564632 | 30.56° C | 57% | 1012.8 hPa | 0 mm | - | 981 W/m² | - |
| 1777564328 | 30.56° C | 58% | 1013 hPa | 0 mm | - | 372 W/m² | - |
| 1777564024 | 30.56° C | 57% | 1012.9 hPa | 0 mm | - | 761 W/m² | - |
| 1777563720 | 30.56° C | 58% | 1012.8 hPa | 0 mm | - | 593 W/m² | - |
| 1777563416 | 31.11° C | 57% | 1013.1 hPa | 0 mm | - | 681 W/m² | - |
| 1777563111 | 31.11° C | 57% | 1013 hPa | 0 mm | - | 882 W/m² | - |
| 1777562807 | 31.11° C | 56% | 1013.1 hPa | 0 mm | - | 827 W/m² | - |
* Rain latest hour (hover to see other rain measurements)
** Current wind speed in m/s (hover to see current wind gust speed)